GW6392 Weather Reports


time (UTC)temp
F
wind
direction
speed
knots
gust
knots
rain 1hr
in
rain 24hr
in
rain mn
in
humidity
%
barometer
mb
20260502234014 66 344 1.7 7.0 0.00 0.00 0.00 32 1017.2
20260502233515 66 346 1.7 5.2 0.00 0.00 0.00 33 1017.2
20260502233050 66 291 2.6 5.2 0.00 0.00 0.00 34 1017.3
20260502232512 66 276 1.7 5.2 0.00 0.00 0.00 35 1017.2
20260502232009 66 351 2.6 7.0 0.00 0.00 0.00 33 1017.4
20260502231551 66 352 1.7 7.8 0.00 0.00 0.00 33 1017.4
20260502231015 66 17 4.3 9.6 0.00 0.00 0.00 33 1017.4
20260502230513 66 342 4.3 9.6 0.00 0.00 0.00 35 1017.5
20260502230030 65 335 3.5 7.8 0.00 0.00 0.00 36 1017.6
20260502225516 64 27 2.6 9.6 0.00 0.00 0.00 37 1017.7
20260502225016 64 17 6.1 9.6 0.00 0.00 0.00 36 1017.7
20260502224552 65 24 4.3 8.7 0.00 0.00 0.00 35 1017.8
20260502224018 65 107 3.5 9.6 0.00 0.00 0.00 34 1017.9
20260502223513 66 63 3.5 10.4 0.00 0.00 0.00 35 1017.8
20260502223049 66 330 4.3 10.4 0.00 0.00 0.00 35 1017.9
20260502222515 65 5 3.5 11.3 0.00 0.00 0.00 35 1017.9
20260502222015 65 360 7.8 11.3 0.00 0.00 0.00 35 1018.0
20260502221550 67 51 2.6 7.8 0.00 0.00 0.00 33 1018.2
20260502221014 67 197 3.5 7.8 0.00 0.00 0.00 34 1018.2
20260502220515 66 22 4.3 13.0 0.00 0.00 0.00 36 1018.2
20260502220048 66 344 7.8 13.0 0.00 0.00 0.00 35 1018.3
20260502215515 65 36 6.1 12.2 0.00 0.00 0.00 35 1018.3
20260502215010 64 46 4.3 12.2 0.00 0.00 0.00 37 1018.3
20260502214547 64 82 1.7 10.4 0.00 0.00 0.00 36 1018.5
20260502214014 64 33 5.2 10.4 0.00 0.00 0.00 37 1018.6
20260502213511 63 51 7.0 13.9 0.00 0.00 0.00 38 1018.6
20260502213054 64 38 10.4 13.9 0.00 0.00 0.00 36 1018.6
20260502212514 65 33 8.7 11.3 0.00 0.00 0.00 34 1018.7
20260502212017 66 79 1.7 10.4 0.00 0.00 0.00 34 1018.8
20260502211530 65 5 7.0 12.2 0.00 0.00 0.00 34 1018.8
20260502211017 66 330 7.0 12.2 0.00 0.00 0.00 35 1018.8
20260502210516 66 15 2.6 11.3 0.00 0.00 0.00 37 1018.9
20260502210054 66 234 3.5 10.4 0.00 0.00 0.00 34 1018.9
20260502205518 66 38 0.9 7.8 0.00 0.00 0.00 33 1018.9
20260502205017 66 26 4.3 9.6 0.00 0.00 0.00 34 1019.1
20260502204529 66 314 3.5 15.6 0.00 0.00 0.00 34 1019.2
20260502204016 66 352 7.0 15.6 0.00 0.00 0.00 37 1019.2
20260502203516 66 25 6.1 13.0 0.00 0.00 0.00 33 1019.2
20260502203059 66 67 1.7 8.7 0.00 0.00 0.00 36 1019.3
20260502202508 65 346 4.3 10.4 0.00 0.00 0.00 35 1019.4
20260502202014 65 9 4.3 10.4 0.00 0.00 0.00 35 1019.5
20260502201557 65 11 7.0 9.6 0.00 0.00 0.00 37 1019.5
20260502201011 64 300 4.3 11.3 0.00 0.00 0.00 38 1019.5
20260502200516 64 333 8.7 11.3 0.00 0.00 0.00 39 1019.6
20260502200100 63 9 4.3 11.3 0.00 0.00 0.00 37 1019.7
20260502195517 64 347 7.8 11.3 0.00 0.00 0.00 37 1019.7
20260502195012 64 58 2.6 9.6 0.00 0.00 0.00 37 1019.8
20260502194555 64 360 6.1 9.6 0.00 0.00 0.00 38 1019.7
20260502194017 64 17 3.5 8.7 0.00 0.00 0.00 37 1019.7
20260502193510 63 55 3.5 8.7 0.00 0.00 0.00 40 1019.7
20260502193054 62 324 4.3 13.9 0.00 0.00 0.00 41 1019.9
20260502192515 62 346 7.0 13.9 0.00 0.00 0.00 43 1019.9
20260502192015 61 333 7.0 10.4 0.00 0.00 0.00 43 1019.8
20260502191602 61 340 6.1 8.7 0.00 0.00 0.00 42 1019.9
20260502191020 61 348 1.7 9.6 0.00 0.00 0.00 41 1020.0
20260502190515 61 18 6.1 10.4 0.00 0.00 0.00 42 1020.1
20260502190058 61 5 5.2 10.4 0.00 0.00 0.00 42 1020.1
20260502185518 61 352 5.2 9.6 0.00 0.00 0.00 40 1020.1
20260502185015 61 5 3.5 10.4 0.00 0.00 0.00 41 1020.3
20260502184554 61 26 7.8 10.4 0.00 0.00 0.00 41 1020.4
20260502184015 61 26 7.8 11.3 0.00 0.00 0.00 40 1020.2
20260502183509 61 352 4.3 11.3 0.00 0.00 0.00 42 1020.3
20260502183052 61 348 7.0 11.3 0.00 0.00 0.00 42 1020.2
20260502182516 61 76 5.2 10.4 0.00 0.00 0.00 42 1020.3
20260502182016 61 360 6.1 10.4 0.00 0.00 0.00 43 1020.4
20260502181558 60 20 6.1 9.6 0.00 0.00 0.00 42 1020.4
20260502181019 60 360 4.3 11.3 0.00 0.00 0.00 43 1020.4
20260502180518 60 32 6.1 11.3 0.00 0.00 0.00 42 1020.4
20260502170519 61 337 10.4 13.0 0.00 0.00 0.00 43 1020.1
20260502170105 61 352 7.8 11.3 0.00 0.00 0.00 43 1020.4
20260502164017 60 352 7.0 16.5 0.00 0.00 0.00 45 1020.5
20260502163519 60 9 7.8 14.8 0.00 0.00 0.00 43 1020.5
20260502163103 60 9 10.4 14.8 0.00 0.00 0.00 46 1020.5
20260502162519 60 336 8.7 13.0 0.00 0.00 0.00 44 1020.5
20260502162017 60 360 8.7 13.0 0.00 0.00 0.00 46 1020.5
20260502161557 60 340 8.7 12.2 0.00 0.00 0.00 45 1020.5
20260502161017 60 344 8.7 14.8 0.00 0.00 0.00 46 1020.5
20260502160517 60 352 10.4 14.8 0.00 0.00 0.00 45 1020.4
20260502152020 59 352 6.1 8.7 0.00 0.00 0.00 43 1020.1
20260502151559 59 30 4.3 8.7 0.00 0.00 0.00 44 1020.1
20260502151016 59 29 1.7 4.3 0.00 0.00 0.00 44 1019.9
20260502150518 59 66 2.6 4.3 0.00 0.00 0.00 45 1019.9
20260502150113 58 28 2.6 5.2 0.00 0.00 0.00 46 1019.9
20260502140112 51 305 2.6 3.5 0.00 0.00 0.00 62 1020.0
20260502130520 43 320 0.9 2.6 0.00 0.00 0.00 74 1019.6
20260502130111 42 320 0.9 2.6 0.00 0.00 0.00 74 1019.7
20260502123516 41 320 2.6 4.3 0.00 0.00 0.00 72 1019.4
20260502123111 41 320 2.6 4.3 0.00 0.00 0.00 72 1019.4
20260502122520 40 317 2.6 4.3 0.00 0.00 0.00 72 1019.3
20260502122026 40 318 3.5 4.3 0.00 0.00 0.00 73 1019.3
20260502121601 40 313 1.7 3.5 0.00 0.00 0.00 71 1019.4
20260502121009 41 343 1.7 3.5 0.00 0.00 0.00 69 1019.1
20260502120520 41 343 1.7 4.3 0.00 0.00 0.00 69 1019.2
20260502115516 42 344 1.7 3.5 0.00 0.00 0.00 67 1019.3
20260502115203 41 344 0.0 4.3 0.00 0.00 0.00 69 1019.1
20260502114537 41 340 3.5 4.3 0.00 0.00 0.00 67 1019.1
20260502114011 42 360 2.6 3.5 0.00 0.00 0.00 65 1019.1
20260502113512 42 360 2.6 3.5 0.00 0.00 0.00 66 1019.0
20260502113036 41 360 1.7 3.5 0.00 0.00 0.00 67 1018.6
20260502112515 41 360 1.7 4.3 0.00 0.00 0.00 66 1018.6
20260502112007 42 360 2.6 4.3 0.00 0.00 0.00 64 1018.7
20260502111520 42 360 1.7 2.6 0.00 0.00 0.00 64 1018.6
20260502111010 42 360 0.0 3.5 0.00 0.00 0.00 65 1018.5
20260502110511 41 360 1.7 3.5 0.00 0.00 0.00 66 1018.5
20260502110030 41 360 0.9 7.0 0.00 0.00 0.00 66 1018.3
20260502105514 41 334 1.7 7.0 0.00 0.00 0.00 65 1018.3
20260502105015 42 307 2.6 4.3 0.00 0.00 0.00 63 1018.3
20260502104533 43 17 1.7 3.5 0.00 0.00 0.00 64 1018.1
20260502104014 42 9 1.7 3.5 0.00 0.00 0.00 64 1018.1
20260502103512 41 9 2.6 3.5 0.00 0.00 0.00 65 1018.0
20260502103034 40 339 1.7 2.6 0.00 0.00 0.00 67 1018.0
20260502102512 39 339 0.9 1.7 0.00 0.00 0.00 68 1018.0
20260502102014 38 339 0.9 2.6 0.00 0.00 0.00 68 1017.9
20260502101529 38 339 1.7 3.5 0.00 0.00 0.00 67 1018.0
20260502101013 38 339 0.9 2.6 0.00 0.00 0.00 67 1017.9
20260502100511 38 339 1.7 2.6 0.00 0.00 0.00 66 1017.9
20260502091015 41 306 2.6 4.3 0.00 0.00 0.00 61 1017.0
20260502090512 42 320 3.5 4.3 0.00 0.00 0.00 60 1016.7
20260502071522 39 307 1.7 3.5 0.00 0.00 0.00 66 1015.7
20260502071011 40 307 2.6 3.5 0.00 0.00 0.00 65 1015.7
20260502070511 40 307 2.6 3.5 0.00 0.00 0.00 65 1015.7
20260502070042 39 307 2.6 3.5 0.00 0.00 0.00 64 1015.9
20260502065516 39 307 2.6 3.5 0.00 0.00 0.00 66 1015.8
20260502065016 39 307 1.7 2.6 0.00 0.00 0.00 65 1015.9
20260502064538 39 307 1.7 3.5 0.00 0.00 0.00 64 1015.7
20260502064019 39 307 2.6 4.3 0.00 0.00 0.00 64 1015.5
20260502063512 39 307 1.7 4.3 0.00 0.00 0.00 64 1015.6
20260502063055 39 315 2.6 3.5 0.00 0.00 0.00 65 1015.6
20260502062517 40 287 2.6 4.3 0.00 0.00 0.00 64 1015.6
20260502062014 40 277 1.7 4.3 0.00 0.00 0.00 64 1015.6
20260502061542 40 279 2.6 3.5 0.00 0.00 0.00 63 1015.7
20260502061014 40 265 1.7 3.5 0.00 0.00 0.00 64 1015.6
20260502060513 40 266 2.6 3.5 0.00 0.00 0.00 63 1015.7
20260502060046 39 279 1.7 2.6 0.00 0.00 0.00 64 1015.5
20260502055514 40 256 1.7 2.6 0.00 0.00 0.00 62 1015.4
20260502055014 40 256 1.7 3.5 0.00 0.00 0.00 61 1015.3
20260502054536 39 244 1.7 4.3 0.00 0.00 0.00 62 1015.4
20260502054013 39 225 3.5 4.3 0.00 0.00 0.00 62 1015.5
20260502053511 40 313 2.6 3.5 0.00 0.00 0.00 61 1015.3
20260502053053 40 313 1.7 3.5 0.00 0.00 0.00 60 1015.3
20260502052515 40 315 2.6 3.5 0.00 0.00 0.00 59 1015.2
20260502052016 41 308 1.7 3.5 0.00 0.00 0.00 60 1015.3
20260502051540 41 298 2.6 3.5 0.00 0.00 0.00 60 1015.4
20260502051012 42 282 1.7 3.5 0.00 0.00 0.00 60 1015.3
20260502050515 42 276 1.7 3.5 0.00 0.00 0.00 59 1015.3
20260502050039 43 241 1.7 3.5 0.00 0.00 0.00 56 1015.3
20260502045515 43 241 1.7 2.6 0.00 0.00 0.00 56 1015.2
20260502045017 44 241 1.7 2.6 0.00 0.00 0.00 54 1015.3
20260502044539 44 241 1.7 3.5 0.00 0.00 0.00 55 1015.1
20260502044011 45 266 1.7 3.5 0.00 0.00 0.00 56 1015.2
20260502043516 46 38 0.0 0.0 0.00 0.00 0.00 54 1015.5
20260502043047 47 38 0.0 0.0 0.00 0.00 0.00 52 1015.4
20260502042515 47 38 0.0 0.0 0.00 0.00 0.00 52 1015.4
20260502042015 47 38 0.0 0.0 0.00 0.00 0.00 56 1015.3
20260502041549 47 38 0.0 0.0 0.00 0.00 0.00 50 1015.0
20260502041013 47 38 0.0 0.0 0.00 0.00 0.00 52 1015.2
20260502040515 46 38 0.0 0.0 0.00 0.00 0.00 52 1015.3
20260502040045 46 38 0.0 0.0 0.00 0.00 0.00 53 1015.5
20260502035514 46 38 0.0 0.0 0.00 0.00 0.00 54 1014.9
20260502035015 47 38 0.0 0.0 0.00 0.00 0.00 52 1015.1
20260502034550 47 38 0.0 0.0 0.00 0.00 0.00 51 1015.2
20260502034010 48 38 0.0 0.0 0.00 0.00 0.00 52 1015.2
20260502033510 49 38 0.0 0.0 0.00 0.00 0.00 48 1015.0
20260502033042 51 38 0.0 0.0 0.00 0.00 0.00 46 1014.6
20260502032515 53 38 0.0 0.0 0.00 0.00 0.00 43 1014.9
20260502032014 56 38 0.0 0.0 0.00 0.00 0.00 39 1014.8
20260502031547 55 38 0.0 0.0 0.00 0.00 0.00 34 1014.7
20260502031014 56 38 0.0 0.0 0.00 0.00 0.00 34 1014.7
20260502030514 58 38 0.0 0.0 0.00 0.00 0.00 32 1014.7
20260502030053 58 38 0.0 0.9 0.00 0.00 0.00 31 1014.5
20260502025514 58 38 0.0 0.9 0.00 0.00 0.00 32 1014.5
20260502025014 59 38 0.0 1.7 0.00 0.00 0.00 32 1014.4
20260502024531 61 38 0.0 3.5 0.00 0.00 0.00 31 1014.3
20260502024025 62 38 2.6 4.3 0.00 0.00 0.00 27 1014.2
20260502023508 63 38 2.6 4.3 0.00 0.00 0.00 25 1014.1
20260502023050 64 38 3.5 4.3 0.00 0.00 0.00 25 1014.1
20260502022513 64 38 2.6 3.5 0.00 0.00 0.00 25 1014.1
20260502022017 64 38 2.6 3.5 0.00 0.00 0.00 24 1014.2
20260502021550 65 38 2.6 4.3 0.00 0.00 0.00 24 1014.3
20260502021014 65 38 3.5 4.3 0.00 0.00 0.00 24 1014.3
20260502020513 66 38 2.6 4.3 0.00 0.00 0.00 24 1014.3
20260502020053 67 38 3.5 4.3 0.00 0.00 0.00 23 1014.4
20260502015516 67 352 1.7 3.5 0.00 0.00 0.00 22 1014.3
20260502015016 67 352 1.7 3.5 0.00 0.00 0.00 21 1014.4
20260502014553 66 352 2.6 3.5 0.00 0.00 0.00 23 1014.4
20260502014013 65 352 2.6 4.3 0.00 0.00 0.00 27 1014.4
20260502013513 66 352 2.6 4.3 0.00 0.00 0.00 28 1014.6
20260502013033 66 352 2.6 3.5 0.00 0.00 0.00 28 1014.6
20260502012514 67 352 2.6 5.2 0.00 0.00 0.00 27 1014.5
20260502012014 68 360 3.5 5.2 0.00 0.00 0.00 26 1014.7
20260502011532 70 340 2.6 7.0 0.00 0.00 0.00 25 1014.7
20260502011016 70 341 3.5 7.8 0.00 0.00 0.00 22 1014.6
20260502010516 71 351 4.3 8.7 0.00 0.00 0.00 21 1014.7
20260502010055 72 350 4.3 10.4 0.00 0.00 0.00 23 1014.9
20260502005514 73 12 7.0 11.3 0.00 0.00 0.00 23 1014.9
20260502005016 73 336 8.7 11.3 0.00 0.00 0.00 20 1014.9
20260502004544 73 320 4.3 11.3 0.00 0.00 0.00 20 1015.0
20260502004013 73 334 7.8 11.3 0.00 0.00 0.00 20 1015.0
20260502003513 73 351 7.0 11.3 0.00 0.00 0.00 19 1015.2
20260502003045 73 352 7.8 13.0 0.00 0.00 0.00 21 1015.0
20260502002513 73 332 8.7 13.9 0.00 0.00 0.00 19 1015.1
20260502002011 74 319 8.7 13.9 0.00 0.00 0.00 20 1015.0
20260502001552 74 360 8.7 12.2 0.00 0.00 0.00 19 1015.0
20260502001018 74 347 8.7 11.3 0.00 0.00 0.00 20 1015.0
20260502000516 74 340 7.8 12.2 0.00 0.00 0.00 20 1015.0
20260502000059 74 340 7.0 12.2 0.00 0.00 0.00 20 1015.1
20260501235513 74 304 8.7 16.5 0.00 0.00 0.00 20 1015.1
20260501235008 74 336 9.6 16.5 0.00 0.00 0.00 20 1015.2
20260501234553 74 299 8.7 13.9 0.00 0.00 0.00 19 1015.3